TimePST,TemperatureF,Dew PointF,Humidity,Sea Level PressureIn,VisibilityMPH,Wind Direction,Wind SpeedMPH,Gust SpeedMPH,PrecipitationIn,Events,Conditions,WindDirDegrees,DateUTC
12:52 AM,57.9,39.0,49,29.79,10.0,WNW,12.7,-,N/A,,Mostly Cloudy,290,2012-12-14 08:52:00
1:13 AM,57.2,41.0,55,29.79,10.0,WNW,12.7,-,0.00,Rain,Light Rain,290,2012-12-14 09:13:00
1:27 AM,57.2,39.2,51,29.80,10.0,West,11.5,-,0.00,,Mostly Cloudy,270,2012-12-14 09:27:00
1:52 AM,57.0,41.0,55,29.79,10.0,WNW,11.5,-,0.00,,Mostly Cloudy,290,2012-12-14 09:52:00
2:52 AM,57.0,41.0,55,29.81,10.0,West,9.2,-,N/A,,Mostly Cloudy,280,2012-12-14 10:52:00
3:29 AM,57.2,37.4,48,29.81,10.0,West,10.4,-,0.00,Rain,Light Rain,280,2012-12-14 11:29:00
3:38 AM,57.2,39.2,51,29.81,10.0,West,12.7,-,0.00,,Mostly Cloudy,280,2012-12-14 11:38:00
3:43 AM,57.2,39.2,51,29.81,10.0,West,12.7,-,0.00,Rain,Light Rain,280,2012-12-14 11:43:00
3:52 AM,57.9,39.0,49,29.81,10.0,West,16.1,21.9,0.00,Rain,Light Rain,270,2012-12-14 11:52:00
4:08 AM,57.2,39.2,51,29.81,10.0,West,12.7,-,0.00,,Mostly Cloudy,280,2012-12-14 12:08:00
4:52 AM,57.9,39.0,49,29.82,10.0,West,13.8,20.7,0.00,,Mostly Cloudy,270,2012-12-14 12:52:00
5:52 AM,57.9,39.0,49,29.85,10.0,West,11.5,-,N/A,,Mostly Cloudy,260,2012-12-14 13:52:00
6:52 AM,57.9,37.0,46,29.88,10.0,West,10.4,-,N/A,,Mostly Cloudy,270,2012-12-14 14:52:00
7:52 AM,59.0,39.9,49,29.91,10.0,West,9.2,-,N/A,,Mostly Cloudy,260,2012-12-14 15:52:00
8:52 AM,61.0,37.9,42,29.93,10.0,West,12.7,-,N/A,,Scattered Clouds,260,2012-12-14 16:52:00
9:52 AM,61.0,39.0,44,29.95,10.0,West,11.5,-,N/A,,Scattered Clouds,270,2012-12-14 17:52:00
10:52 AM,63.0,39.9,43,29.95,10.0,West,8.1,-,N/A,,Scattered Clouds,270,2012-12-14 18:52:00
11:52 AM,61.0,39.9,46,29.94,10.0,West,12.7,-,N/A,,Mostly Cloudy,260,2012-12-14 19:52:00
12:52 PM,61.0,42.1,50,29.93,10.0,SSW,10.4,-,N/A,,Mostly Cloudy,210,2012-12-14 20:52:00
1:52 PM,59.0,44.1,58,29.94,10.0,WNW,6.9,-,0.00,Rain,Light Rain,290,2012-12-14 21:52:00
2:52 PM,57.0,45.0,64,29.95,10.0,West,6.9,-,0.00,,Overcast,280,2012-12-14 22:52:00
3:08 PM,57.2,44.6,63,29.95,9.0,West,6.9,-,0.00,Rain,Light Rain,270,2012-12-14 23:08:00
3:21 PM,57.2,44.6,63,29.95,10.0,West,6.9,-,0.00,,Overcast,270,2012-12-14 23:21:00
3:52 PM,57.9,43.0,58,29.95,9.0,SW,8.1,-,0.00,,Overcast,230,2012-12-14 23:52:00
4:52 PM,57.0,45.0,64,29.95,10.0,South,8.1,-,N/A,,Overcast,170,2012-12-15 00:52:00
5:22 PM,55.4,44.6,67,29.96,7.0,WNW,12.7,16.1,0.00,Rain,Light Rain,290,2012-12-15 01:22:00
5:52 PM,55.0,44.1,67,29.98,7.0,Calm,Calm,-,0.03,Rain,Light Rain,0,2012-12-15 01:52:00
6:52 PM,54.0,45.0,72,29.99,7.0,East,3.5,-,0.02,Rain,Light Rain,80,2012-12-15 02:52:00
7:31 PM,53.6,46.4,77,29.98,10.0,East,6.9,-,0.01,,Overcast,90,2012-12-15 03:31:00
7:52 PM,53.1,46.9,80,29.99,10.0,East,6.9,-,0.01,,Overcast,90,2012-12-15 03:52:00
8:52 PM,53.1,46.9,80,29.99,10.0,East,5.8,-,N/A,,Mostly Cloudy,90,2012-12-15 04:52:00
9:22 PM,53.6,46.4,77,30.00,7.0,East,5.8,-,0.00,Rain,Light Rain,100,2012-12-15 05:22:00
9:52 PM,54.0,46.9,77,30.00,7.0,ESE,9.2,-,0.01,Rain,Light Rain,120,2012-12-15 05:52:00
10:52 PM,53.1,46.0,77,29.99,9.0,East,6.9,-,0.01,Rain,Light Rain,100,2012-12-15 06:52:00
11:52 PM,54.0,46.0,75,29.98,9.0,East,9.2,-,0.00,Rain,Light Rain,100,2012-12-15 07:52:00